EXPRESS AMU-7

Last updated on Mon Oct 14 2024 00:02:41 GMT+0000 (Coordinated Universal Time)

1 50001U 21123A 24287.53452543 -.00000244 00000+0 00000+0 0 9998 2 50001 0.0295 258.8974 0000295 307.2112 153.9186 1.00271633 10400
UTC large
Height (km)
Speed (km/s)
/
Latitude / Longitude
Inclination (degrees)
Orbital Period (minutes)
Azimuth
Elevation
Range (km)
Doppler Factor

Next 0 passes for location: London (51.5072 / 0.1276)

Sorry there are no passes over London.